STARLINK-1696 (46545 NORAD) Tracking and Keplerian Element Data

This shows tracking and keplerian element data for the satellite.

Feedback or suggestion? Click here.




ElementValue
Catalog46545
NameSTARLINK-1696
Epoch Orbit458
Epoch Day304.50002315
Epoch Year2020
RAAN323.9804
Inclination53.0002
Eccentricity0.0001456
Argument of Perigee59.6248
Mean Anonmoly6.685
Mean Motion15.62702716
Decay Rate0.00085537
L11 46545U 20070P 20304.50002315 .00085537 00000-0 93198-3 0 9999
L22 46545 53.0002 323.9804 0001456 59.6248 6.6850 15.62702716 4584

Live tracking and technical data element details for STARLINK-1696 (NORAD 46545). STARLINK-1696 can be tracked NOW for your location showing map with azimuth and elevation plus other details from your city location.

Track the satellite on the map from your city or location and see movement details for azimuth, elevation, latitude, longitude, range, height, and movement on the map or in text.







IsCatalogInMostPopularTable: catalog: 46545, numindb: 3
Update: records affected: 1



GetName: 46545 STARLINK-1696

Hit Count: updated at: Sat, 31 Oct 2020 06:43:15 GMT